Regional Weather Roundup
Issued by NWS Wakefield, VA

Home | Current Version | Previous Version | Graphics & Text | Print | Product List | Glossary On
Versions: 1 2 3 4 5 6 7 8 9 10 11 12 13 14 15 16 17 18 19 20 21 22 23 24 25 26 27
000
ASUS41 KAKQ 281816
RWRAKQ

REGIONAL WEATHER ROUNDUP
NATIONAL WEATHER SERVICE WAKEFIELD VA
200 PM EDT WED JUN 28 2017

Note: "fair" indicates few or no clouds below 12,000 feet with no
significant weather and/or obstructions to visibility. * = Denotes
station may not report precipitation (e.g., rain,snow,etc.),
thunder or fog.

VAZ042-051-052>054-056-281900-
NORTHERN VIRGINIA

CITY           SKY/WX    TMP DP  RH WIND       PRES   REMARKS
WASH NATIONAL  MOSUNNY   80  48  32 N8        30.17F
DULLES         MOSUNNY   78  45  30 N5        30.18F
FORT BELVOIR   SUNNY     78  46  32 NW9       30.17F
QUANTICO       MOSUNNY   79  54  41 S8        30.19F
FREDERICKSBRG* SUNNY     79  51  36 N9        30.17F
STAFFORD*      SUNNY     77  46  33 W5        30.22F
WARRENTON      PTSUNNY   80  44  27 CALM      30.19R
CULPEPER*      MOSUNNY   78  52  39 NW6       30.19S
MANASSAS*      PTSUNNY   77  52  41 NW8       30.19S
LEESBURG*      SUNNY     79  52  38 W5        30.20R
WINCHESTER     SUNNY     73  45  35 W8        30.18F
FRONT ROYAL*   PTCLDY    77  48  36 SW3       30.18S
LURAY*         PTCLDY    75  48  38 CALM      30.20S
$$

VAZ048-049-060>072-079>083-281900-
CENTRAL AND SOUTH CENTRAL VIRGINIA

CITY           SKY/WX    TMP DP  RH WIND       PRES   REMARKS
RICHMOND       MOSUNNY   78  49  35 VRB3      30.19F
CHESTERFIELD*  NOT AVBL
PETERSBURG*    SUNNY     77  46  32 CALM      30.20F
HANOVER        SUNNY     77  49  37 VRB3      30.20F
TAPPAHANNOCK*  SUNNY     79  40  24 CALM      30.20F
QUINTON*       FAIR      77  50  38 E3        30.19F
CHARLOTTSVILLE SUNNY     79  48  33 VRB7      30.20S
GORDONSVILLE*  CLEAR     78  48  33 CALM      30.18F
ORANGE*        SUNNY     77  48  36 NE3       30.19F
LOUISA*        SUNNY     82  52  34 W5        30.19S
BUMPASS*       FAIR      76  49  38 E5        30.20S
FARMVILLE*     SUNNY     80  38  22 N3        30.20S
CREWE*         FAIR      77  42  29 S3        30.21S
FORT PICKETT*  FAIR     N/A N/A N/A N7        30.21S
CHASE CITY*    FAIR      77  51  40 W5        30.21F
CLARKSVILLE*   FAIR      77  54  44 S3        30.21F
SOUTH HILL*    SUNNY     78  52  40 W7        30.26S
LAWRENCEVILLE* FAIR      78  50  37 CALM      30.20S
EMPORIA*       SUNNY     79  50  36 NW6       30.21F
$$

VAZ088>098-281900-
SOUTHEAST VIRGINIA

CITY           SKY/WX    TMP DP  RH WIND       PRES   REMARKS
NORFOLK        SUNNY     78  52  40 NE10      30.20S
VIRGINIA BEACH MOSUNNY   76  50  40 E9        30.20R
NORFOLK NAVAL  NOT AVBL
WEST POINT*    SUNNY     79  46  31 W3        30.20F
SALUDA*        FAIR      77  55  46 E3        30.19F
NEWPORT NEWS   PTSUNNY   77  55  46 E8        30.20R
LANGLEY AFB    MOSUNNY   75  54  47 E9        30.20S
FORT EUSTIS    SUNNY     82  52  35 NW7       30.17S
WILLIAMSBURG*  SUNNY     84  54  34 CALM      30.20S
HR EXEC AP*    FAIR      81  55  41 CALM      30.17S
FRANKLIN*      MOSUNNY   81  52  36 NW8       30.20R
US460-WAKEFLD  SUNNY     80  48  32 N5        30.19S
$$

VAZ020-022-025-037-045-281900-
WEST CENTRAL AND SOUTHWEST VIRGINIA

CITY           SKY/WX    TMP DP  RH WIND       PRES   REMARKS
STAUNTON*      SUNNY     73  47  39 NW3       30.23F
WAYNESBORO*    CLEAR     73  51  45 CALM      30.22F
HOT SPRINGS VA SUNNY     64  34  32 CALM      30.30F
LYNCHBURG      SUNNY     75  46  35 CALM      30.22S
DANVILLE       SUNNY     78  55  44 MISG      30.21F
SOUTH BOSTON*  FAIR      78  52  39 CALM      30.21S
MARTINSVILLE   SUNNY     78  54  43 SW3       30.23F
ROANOKE        MOSUNNY   78  49  35 SW8       30.23F
BLACKSBURG     SUNNY     73  48  40 W5        30.28F
DUBLIN*        MOSUNNY   76  43  30 NE3       30.25F
MARION*        SUNNY     76  47  35 W9        30.27F
HILLSVILLE*    PTSUNNY   71  44  36 CALM      30.25F
RICHLANDS*     FAIR      74  51  45 W10G17    30.25F
WISE*          SUNNY     75  46  35 CALM      30.25F
ABINGDON*      MOSUNNY   78  52  39 SW3       30.23F
$$

MDZ021>025-VAZ099-100-281900-
SOUTHERN MARYLAND AND THE DELMARVA PENINSULA

CITY           SKY/WX    TMP DP  RH WIND       PRES   REMARKS
PATUXENT RIVER MOSUNNY   77  51  40 E10       30.18F
BAY BRIDGE APT SUNNY     77  48  36 NE6       30.17F
LEONARDTOWN    PTSUNNY   75  50  41 S6        30.19F
DOVER          SUNNY     77  52  41 W12       30.14F
GEORGETOWN     SUNNY     79  45  29 NW7       30.17F
EASTON         SUNNY     77  45  31 W5        30.21F
CAMBRIDGE      SUNNY     75  45  33 VRB5G12   30.18F
SALISBURY      SUNNY     79  47  32 NW9       30.17F
OCEAN CITY     SUNNY     72  55  55 SE9       30.19S
WALLOPS ISLAND SUNNY     80  47  31 NW10      30.19S
ACCOMACK*      SUNNY     78  47  33 NW8       30.20S
$$

NCZ012>017-030>032-281900-
NORTH CENTRAL AND EASTERN NORTH CAROLINA

CITY           SKY/WX    TMP DP  RH WIND       PRES   REMARKS
ROANOKE RAPIDS FAIR      79  52  38 CALM      30.20F
RALEIGH        MOSUNNY   80  51  36 VRB6      30.21F
ELIZABETH CITY SUNNY     79  59  50 E8        30.19S
AHOSKIE*         N/A     78  50  38 N5        30.19F
EDENTON*       PTSUNNY   80  62  54 CALM      30.19S
CURRITUCK*     SUNNY     77  54  45 E8        30.21R
KILL DEVIL HLS SUNNY     76  60  58 NE7       30.19S
MANTEO         SUNNY     75  62  64 E7        30.20F
CAPE HATTERAS  NOT AVBL
TARBORO*       NOT AVBL
GOLDSBORO      SUNNY     83  50  32 SE7       30.18S
WASHINGTON     SUNNY    N/A N/A N/A CALM      30.19S
GREENVILLE     SUNNY     82  52  34 NE7       30.20F
NEW BERN       SUNNY     82  55  39 VRB5G17   30.19F
WILMINGTON     SUNNY     84  51  31 NE8       30.18F
$$

VAZ048-281900-
ELSEWHERE

CITY           SKY/WX    TMP DP  RH WIND       PRES   REMARKS
HARRISBURG PA  MOSUNNY   77  47  34 CALM      30.14F
BALTIMORE      MOSUNNY   79  45  29 VRB3      30.15F
ANNAPOLIS      SUNNY     73  56  54 SE12      30.16F
ANDREWS AFB    SUNNY     79  43  28 CALM      30.16F
PHILADELPHIA   MOSUNNY   78  46  32 W10       30.14F
HENDERSON NC   SUNNY     75  50  41 NE3       30.22S
GREENSBORO     PTSUNNY   77  55  46 E5        30.20F
ROCKY MOUNT    SUNNY     82  55  39 VRB3      30.20F
$$

VAZ100-281900-
MARINE

STATION/POSITION TIME  TEMP    WIND        PRES    WAVE   SWELL
                       AIR SEA DIR/SP/G            HT/PER HT/PER
                 (UTC) (F)     (DEG/KT/KT) (MB)    (FT/S) (FT/S)
BRANDYWINE LGT   1742   71     350/  4/  5 1022.2F
CAPE MAY NJ      1748   73 67  280/  8/ 10 1021.5F
LEWES DE         1742   70 71   40/  6/  7 1022.0F
15NM E FENWICK I 1750   69 69  340/  4/  6 1022.9R   1/11
OCEAN-CITY-INLET 1748   71 65  150/  6/  9 1022.7R
WACHAPREAGUE VA  1748   72 76  120/  3/  5 1022.5R
THOMAS POINT MD  1800   73 77  130/  6/  7   N/A
GOOSES REEF MD   1800   73 79  130/  6/  8 1022.9    0
COVE POINT MD    1748   72      80/  5/  8 1022.6F
SOLOMONS ISLAND  1748   72 78   80/  8/ 10   N/A
BISHOPS HEAD MD  1748   73 79  280/  7/ 10 1022.1F
PINEY POINT MD   1742          280/  4/  5   N/A
POTOMAC MD       1800   73 80  140/  4/  8 1021.6    0
CAMBRIDGE MD     1742   77 81              1022.7F
LEWISETTA VA     1748   74 79   50/  3/  5 1022.1F
RAPPAHANNOCK LGT 1742           30/ 10/ 11 1023.4S
STINGRAY PT      1750   73     100/  8/ 10 1022.5F
YORK RVR RNG VA  1748   73      80/  7/  9 1023.0R
YORKTOWN VA      1748   73 79   90/  9/ 12 1022.3R
JAMESTOWN VA     1750   76     270/  2/  6   N/A
DOMINION TERM VA 1748   74      70/  7/ 11 1023.1R
KIPTOPEKE VA     1742      76  190/  7/  8   N/A
CHES BAY BRIDGE  1748   71 75  100/  7/  9 1022.9R
CAPE HENRY VA    1748   71      90/  7/  8   N/A
WILLOUBY STN VA  1748   73      70/  8/  9 1022.9R
S CRANEY ISL VA  1748   75      40/  5/  6 1022.4F
CAPE HENRY BUOY  1730      72                N/A     2/ 4
1ST LANDING BUOY 1800   72 75              1023.1    1/ 3
CAPE CHARLES BUO 1751      72                N/A     2/ 4
64NM E OF VA BCH 1750   71 74   30/  8/ 10 1022.9S   3/ 5   2/ 5
DUCK PIER NC     1748   72 74   40/  8/ 10 1022.3R
44100 DUCK FRF   1705      73                N/A     3/ 5
OREGON INLET NC  1742   73 76   50/  9/ 11 1022.2F
HATTERAS NC      1748   78 78   30/  6/ 11 1022.0F
DIAMOND SHLS NC  1750   77 81   30/  8/ 10 1021.9R   2/ 6   2/ 6
CAPE LOOKOUT NC  1700   78      60/ 10/ 12 1021.9R
$$




USA.gov is the U.S. government's official web portal to all federal, state and local government web resources and services.